| time (UTC) | temp C | wind direction | speed KPH | gust KPH | rain 1hr cm | rain 24hr cm | rain mn cm | humidity % | barometer mb |
| 20260506112905 | 8 | 63 | 3.2 | 3.2 | 0.00 | 0.51 | 0.51 | 99 | 1014.3 |
| 20260506111905 | 8 | 63 | 3.2 | 3.2 | 0.00 | 0.51 | 0.51 | 99 | 1014.5 |
| 20260506110905 | 8 | 77 | 3.2 | 3.2 | 0.00 | 0.51 | 0.51 | 99 | 1014.8 |
| 20260506105905 | 8 | 79 | 1.6 | 3.2 | 0.00 | 0.51 | 0.51 | 99 | 1014.8 |
| 20260506104905 | 8 | 74 | 3.2 | 3.2 | 0.00 | 0.51 | 0.51 | 99 | 1015.0 |
| 20260506103905 | 8 | 68 | 3.2 | 3.2 | 0.00 | 0.51 | 0.51 | 98 | 1014.9 |
| 20260506101905 | 8 | 76 | 1.6 | 3.2 | 0.00 | 0.51 | 0.51 | 99 | 1015.2 |
| 20260506100905 | 8 | 79 | 1.6 | 3.2 | 0.00 | 0.51 | 0.51 | 99 | 1015.2 |
| 20260506095905 | 8 | 76 | 1.6 | 3.2 | 0.00 | 0.51 | 0.51 | 99 | 1015.2 |
| 20260506094905 | 9 | 71 | 3.2 | 3.2 | 0.00 | 0.51 | 0.51 | 99 | 1015.3 |
| 20260506093910 | 9 | 69 | 3.2 | 3.2 | 0.00 | 0.51 | 0.51 | 99 | 1015.3 |
| 20260506092906 | 9 | 78 | 3.2 | 3.2 | 0.00 | 0.51 | 0.51 | 99 | 1015.4 |
| 20260506091905 | 9 | 77 | 3.2 | 3.2 | 0.00 | 0.51 | 0.51 | 99 | 1015.5 |
| 20260506090905 | 9 | 73 | 3.2 | 3.2 | 0.00 | 0.51 | 0.51 | 99 | 1015.2 |
| 20260506085911 | 9 | 78 | 3.2 | 4.8 | 0.00 | 0.51 | 0.51 | 99 | 1015.4 |
| 20260506084905 | 9 | 83 | 3.2 | 3.2 | 0.00 | 0.51 | 0.51 | 99 | 1015.7 |
| 20260506084213 | 9 | 85 | 3.2 | 0.0 | 0.00 | 0.51 | 0.51 | 99 | 1015.7 |
| 20260506084205 | 9 | 85 | 3.2 | 3.2 | 0.00 | 0.51 | 0.51 | 99 | 1015.7 |
| 20260506081912 | 9 | 72 | 3.2 | 3.2 | 0.00 | 0.51 | 0.51 | 99 | 1016.0 |
| 20260506080910 | 10 | 81 | 3.2 | 3.2 | 0.00 | 0.51 | 0.51 | 99 | 1016.0 |
| 20260506072905 | 10 | 78 | 3.2 | 3.2 | 0.03 | 0.51 | 0.51 | 99 | 1016.4 |
| 20260506071906 | 10 | 66 | 3.2 | 3.2 | 0.03 | 0.51 | 0.51 | 99 | 1016.6 |
| 20260506070905 | 10 | 61 | 3.2 | 3.2 | 0.05 | 0.51 | 0.51 | 99 | 1016.5 |
| 20260506061905 | 10 | 72 | 3.2 | 3.2 | 0.18 | 0.48 | 0.48 | 98 | 1016.3 |
| 20260506060828 | 10 | 89 | 1.6 | 0.0 | 0.18 | 0.46 | 0.46 | 98 | 1016.2 |
| 20260506050905 | 11 | 79 | 1.6 | 3.2 | 0.08 | 0.28 | 0.28 | 97 | 1016.2 |
| 20260506044904 | 11 | 69 | 1.6 | 4.8 | 0.13 | 0.25 | 0.25 | 96 | 1016.3 |
| 20260506042905 | 11 | 52 | 3.2 | 4.8 | 0.15 | 0.23 | 0.23 | 95 | 1016.1 |
| 20260506041905 | 11 | 71 | 3.2 | 4.8 | 0.15 | 0.23 | 0.23 | 95 | 1016.2 |
| 20260506040905 | 11 | 64 | 3.2 | 4.8 | 0.15 | 0.20 | 0.20 | 95 | 1016.2 |
| 20260506034910 | 11 | 61 | 3.2 | 3.2 | 0.08 | 0.13 | 0.13 | 92 | 1016.4 |
| 20260506033905 | 11 | 60 | 3.2 | 3.2 | 0.05 | 0.10 | 0.10 | 90 | 1016.2 |
| 20260506032905 | 11 | 66 | 3.2 | 3.2 | 0.05 | 0.08 | 0.08 | 93 | 1016.3 |
| 20260506030905 | 11 | 63 | 3.2 | 4.8 | 0.05 | 0.05 | 0.05 | 96 | 1016.2 |
| 20260506025905 | 11 | 107 | 3.2 | 3.2 | 0.05 | 0.05 | 0.05 | 96 | 1016.3 |
| 20260506023906 | 11 | 63 | 3.2 | 4.8 | 0.05 | 0.05 | 0.05 | 95 | 1016.1 |
| 20260506021904 | 11 | 82 | 1.6 | 3.2 | 0.03 | 0.03 | 0.03 | 93 | 1015.8 |
| 20260506020905 | 11 | 80 | 1.6 | 3.2 | 0.03 | 0.03 | 0.03 | 92 | 1015.7 |
| 20260506015904 | 11 | 75 | 1.6 | 4.8 | 0.00 | 0.00 | 0.00 | 90 | 1015.8 |
| 20260506014905 | 11 | 67 | 3.2 | 4.8 | 0.00 | 0.00 | 0.00 | 88 | 1015.5 |
| 20260506012905 | 12 | 65 | 3.2 | 4.8 | 0.00 | 0.00 | 0.00 | 86 | 1015.5 |
| 20260506011904 | 12 | 46 | 3.2 | 3.2 | 0.00 | 0.00 | 0.00 | 84 | 1015.2 |
| 20260506010905 | 12 | 58 | 3.2 | 4.8 | 0.00 | 0.00 | 0.00 | 84 | 1015.5 |
| 20260506005904 | 12 | 58 | 3.2 | 4.8 | 0.00 | 0.00 | 0.00 | 82 | 1015.4 |
| 20260506004904 | 12 | 64 | 1.6 | 4.8 | 0.00 | 0.00 | 0.00 | 82 | 1015.5 |
| 20260506003904 | 12 | 70 | 3.2 | 4.8 | 0.00 | 0.00 | 0.00 | 83 | 1015.6 |
| 20260506002904 | 12 | 55 | 3.2 | 3.2 | 0.00 | 0.00 | 0.00 | 83 | 1015.7 |
| 20260506001905 | 11 | 80 | 3.2 | 4.8 | 0.00 | 0.00 | 0.00 | 85 | 1015.9 |
| 20260506000905 | 11 | 58 | 3.2 | 4.8 | 0.00 | 0.00 | 0.00 | 86 | 1015.8 |
| 20260505235905 | 11 | 101 | 1.6 | 4.8 | 0.00 | 0.00 | 0.00 | 99 | 1015.7 |
| 20260505234905 | 11 | 86 | 3.2 | 4.8 | 0.00 | 0.00 | 0.00 | 99 | 1015.9 |
| 20260505233904 | 10 | 84 | 3.2 | 3.2 | 0.00 | 0.00 | 0.00 | 98 | 1016.0 |
| 20260505232905 | 10 | 59 | 3.2 | 3.2 | 0.00 | 0.00 | 0.00 | 98 | 1015.9 |
| 20260505231905 | 8 | 83 | 1.6 | 4.8 | 0.00 | 0.00 | 0.00 | 99 | 1016.1 |
| 20260505225905 | 8 | 64 | 1.6 | 4.8 | 0.00 | 0.00 | 0.00 | 99 | 1015.9 |
| 20260505224905 | 7 | 81 | 3.2 | 4.8 | 0.00 | 0.00 | 0.00 | 99 | 1016.0 |
| 20260505223904 | 6 | 64 | 3.2 | 4.8 | 0.00 | 0.00 | 0.00 | 99 | 1015.9 |
| 20260505222905 | 6 | 79 | 3.2 | 3.2 | 0.00 | 0.00 | 0.00 | 99 | 1016.1 |
| 20260505221905 | 6 | 84 | 1.6 | 3.2 | 0.00 | 0.00 | 0.00 | 99 | 1016.2 |
| 20260505215906 | 5 | 56 | 3.2 | 4.8 | 0.00 | 0.00 | 0.00 | 99 | 1016.4 |
| 20260505214905 | 5 | 77 | 3.2 | 4.8 | 0.00 | 0.00 | 0.00 | 98 | 1016.3 |
| 20260505213905 | 4 | 74 | 3.2 | 3.2 | 0.00 | 0.00 | 0.00 | 99 | 1016.5 |
| 20260505212905 | 4 | 85 | 3.2 | 3.2 | 0.00 | 0.00 | 0.00 | 99 | 1016.3 |
| 20260505211905 | 3 | 52 | 3.2 | 4.8 | 0.00 | 0.00 | 0.00 | 99 | 1016.6 |
| 20260505210905 | 2 | 66 | 3.2 | 4.8 | 0.00 | 0.00 | 0.00 | 99 | 1016.6 |
| 20260505205905 | 3 | 76 | 3.2 | 3.2 | 0.00 | 0.00 | 0.00 | 99 | 1016.6 |
| 20260505204905 | 2 | 74 | 3.2 | 4.8 | 0.00 | 0.00 | 0.00 | 99 | 1016.4 |
| 20260505202906 | 2 | 67 | 3.2 | 8.0 | 0.00 | 0.00 | 0.00 | 99 | 1016.1 |
| 20260505201904 | 2 | 67 | 3.2 | 4.8 | 0.00 | 0.00 | 0.00 | 99 | 1016.2 |
| 20260505195905 | 2 | 72 | 3.2 | 4.8 | 0.00 | 0.00 | 0.00 | 99 | 1016.1 |
| 20260505194905 | 2 | 79 | 3.2 | 4.8 | 0.00 | 0.00 | 0.00 | 99 | 1016.0 |
| 20260505193905 | 1 | 87 | 3.2 | 4.8 | 0.00 | 0.00 | 0.00 | 99 | 1016.2 |
| 20260505192905 | 1 | 69 | 3.2 | 4.8 | 0.00 | 0.00 | 0.00 | 99 | 1015.7 |
| 20260505191910 | 1 | 75 | 3.2 | 4.8 | 0.00 | 0.00 | 0.00 | 99 | 1016.1 |
| 20260505185905 | 1 | 59 | 3.2 | 4.8 | 0.00 | 0.00 | 0.00 | 99 | 1015.9 |
| 20260505183907 | 1 | 81 | 3.2 | 4.8 | 0.00 | 0.00 | 0.00 | 99 | 1015.8 |
| 20260505182911 | 1 | 70 | 3.2 | 8.0 | 0.00 | 0.00 | 0.00 | 99 | 1015.9 |
| 20260505181904 | 1 | 58 | 4.8 | 4.8 | 0.00 | 0.00 | 0.00 | 99 | 1016.0 |
| 20260505180904 | 1 | 78 | 3.2 | 4.8 | 0.00 | 0.00 | 0.00 | 99 | 1015.9 |
| 20260505175904 | 1 | 69 | 3.2 | 4.8 | 0.00 | 0.00 | 0.00 | 99 | 1016.1 |
| 20260505174905 | 1 | 66 | 3.2 | 4.8 | 0.00 | 0.00 | 0.00 | 98 | 1016.2 |
| 20260505172905 | 1 | 92 | 1.6 | 4.8 | 0.00 | 0.00 | 0.00 | 99 | 1016.2 |
| 20260505171906 | 1 | 62 | 3.2 | 4.8 | 0.00 | 0.00 | 0.00 | 98 | 1016.1 |
| 20260505170905 | 2 | 76 | 3.2 | 4.8 | 0.00 | 0.00 | 0.00 | 98 | 1016.0 |
| 20260505165905 | 2 | 81 | 3.2 | 8.0 | 0.00 | 0.00 | 0.00 | 98 | 1016.2 |
| 20260505164905 | 2 | 65 | 3.2 | 4.8 | 0.00 | 0.00 | 0.00 | 98 | 1016.4 |
| 20260505163907 | 2 | 71 | 3.2 | 4.8 | 0.00 | 0.00 | 0.00 | 98 | 1016.5 |
| 20260505161905 | 3 | 78 | 3.2 | 4.8 | 0.00 | 0.00 | 0.00 | 99 | 1016.7 |
| 20260505152905 | 4 | 79 | 3.2 | 3.2 | 0.00 | 0.00 | 0.00 | 99 | 1017.3 |
| 20260505151905 | 4 | 65 | 3.2 | 4.8 | 0.00 | 0.00 | 0.00 | 99 | 1017.2 |
| 20260505150905 | 4 | 60 | 3.2 | 4.8 | 0.00 | 0.00 | 0.00 | 99 | 1017.5 |
| 20260505124905 | 5 | 88 | 3.2 | 3.2 | 0.00 | 0.00 | 0.00 | 99 | 1018.7 |
| 20260505123905 | 5 | 64 | 3.2 | 3.2 | 0.00 | 0.00 | 0.00 | 99 | 1018.8 |
| 20260505121905 | 6 | 99 | 0.0 | 3.2 | 0.00 | 0.00 | 0.00 | 99 | 1018.9 |
| 20260505120905 | 6 | 76 | 3.2 | 3.2 | 0.00 | 0.00 | 0.00 | 99 | 1018.9 |
| 20260505115905 | 6 | 80 | 3.2 | 3.2 | 0.00 | 0.00 | 0.00 | 99 | 1019.0 |
| 20260505114905 | 6 | 77 | 3.2 | 3.2 | 0.00 | 0.00 | 0.00 | 99 | 1019.0 |
| 20260505113904 | 6 | 74 | 1.6 | 4.8 | 0.00 | 0.00 | 0.00 | 99 | 1019.4 |